Tracking 31027 objects as of 19-Jul-2025
HD Live streaming from Space Station
objects crossing your sky now

METEOR 1-23

Track METEOR 1-23 now!
10-day predictions
METEOR 1-23 is classified as:


NORAD ID: 8519
Int'l Code: 1975-124A
Perigee: 852.6 km
Apogee: 871.6 km
Inclination: 81.2 °
Period: 102.0 minutes
Semi major axis: 7233 km
RCS: 4.3645 m2 (large)
Launch date: December 25, 1975
Source: Commonwealth of Independent States (former USSR) (CIS)
Launch site: PLESETSK MISSILE AND SPACE COMPLEX (PKMTR)
Your satellite tracking list
THORAD DELTA 1 DEB
Track 1 satellite(s)




NASA's NSSDC Master Catalog

Two Line Element Set (TLE):
1 08519U 75124A   25199.39381973  .00000011  00000-0 -75315-6 0  9991
2 08519  81.2431  90.0716 0013137 186.2504 173.8506 14.11303108549806
Source of the keplerian elements: AFSPC